Location: *
(13.0000°N, 151.6000°E)
Time: 04:32:31
(UTC+00:00)

Meteor 1-4 Rocket - Pass Details

Date: 01 April 2020
Orbit: 449 x 503 km, 81.2° (Epoch: 24 May)

Event Time Altitude Azimuth Distance (km) Brightness Sun altitude
Exits shadow 18:52:25 27° 265° (W) 983 3.5 -14.6°
Maximum altitude 18:52:50 27° 277° (W) 967 3.5 -14.5°
Drops below altitude 10° 18:56:03 10° 337° (NNW) 1,696 5.2 -13.7°
Sets 18:58:24 0° 349° (N) 2,584 6.2 -13.1°
